Weather History for Washington, GA

Change the Weather History Date:

Monday, December 17, 2012

  Actual Average (KDBN) Record (KDBN)
Temperature  
Mean Temperature 56 °F -  
Max Temperature 59 °F 58 °F 82 °F (1971)
Min Temperature 53 °F 35 °F 17 °F (1943)
Degree Days  
Heating Degree Days 9    
Growing Degree Days 6 (Base 50)    
Moisture  
Dew Point 56 °F    
Average Humidity 100    
Maximum Humidity 100    
Minimum Humidity 94    
Precipitation  
Precipitation 0.00 in - - ()
Sea Level Pressure  
Sea Level Pressure 29.82 in    
Wind  
Wind Speed 3 mph (SSW)    
Max Wind Speed 10 mph    
Max Gust Speed -    
Visibility 8 miles    
Events Fog , Rain    
Averages and records for this station are not official NWS values.
T = Trace of Precipitation, MM = Missing Value Source: NWS Daily Summary

Daily Weather History Graph

Daily Weather History Graph

Search for Another Location

Airport:

Trip Planner

Search our weather history database for the weather conditions in past years. The results will help you decide how hot, cold, wet, or windy it might be!

Date:

Astronomy

Dec. 17, 2012 Rise Set
Actual Time 7:30 AM EST 5:25 PM EST
Civil Twilight 7:02 AM EST 5:52 PM EST
Nautical Twilight 6:31 AM EST 6:23 PM EST
Astronomical Twilight 6:00 AM EST 6:54 PM EST
Moon 10:49 AM EST (12/17) 10:32 PM EST (12/17)
Length of Visible Light 10h 50m
Length of Day
9h 54m
Waxing Crescent, 24% of the Moon is Illuminated
Dec 17
Waxing Crescent
Dec 20
First Quarter
Dec 28
Full
Jan 4
Last Quarter
Jan 11
New

Hourly Weather History & Observations

Time (EST) Temp. Dew Point Humidity Pressure Visibility Wind Dir Wind Speed Gust Speed Precip Events Conditions
12:15 AM 55.4 °F 55.4 °F 100% 29.94 in 5.0 mi Calm Calm - N/A   Drizzle
12:35 AM 55.4 °F 55.4 °F 100% 29.94 in 7.0 mi WNW 3.5 mph - N/A Rain Light Rain
12:55 AM 55.4 °F 55.4 °F 100% 29.94 in 5.0 mi Calm Calm - N/A Rain Rain
1:15 AM 55.4 °F 55.4 °F 100% 29.93 in 7.0 mi Calm Calm - N/A Rain Light Rain
1:35 AM 53.6 °F 53.6 °F 100% 29.91 in 4.0 mi Calm Calm - N/A Rain Rain
1:55 AM 53.6 °F 53.6 °F 100% 29.89 in 2.5 mi East 3.5 mph - N/A   Overcast
2:15 AM 53.6 °F 53.6 °F 100% 29.88 in 1.2 mi Calm Calm - N/A Rain Light Rain
2:35 AM 53.6 °F 53.6 °F 100% 29.86 in 2.5 mi SSE 6.9 mph - N/A   Light Drizzle
2:55 AM 53.6 °F 53.6 °F 100% 29.85 in 10.0 mi SSE 10.4 mph - N/A Rain Light Rain
3:15 AM 53.6 °F 53.6 °F 100% 29.85 in 10.0 mi Calm Calm - N/A Rain Light Rain
3:35 AM 53.6 °F 53.6 °F 100% 29.86 in 10.0 mi Calm Calm - N/A   Scattered Clouds
3:55 AM 53.6 °F 53.6 °F 100% 29.85 in 10.0 mi SSE 4.6 mph - N/A   Clear
4:15 AM 53.6 °F 53.6 °F 100% 29.85 in 10.0 mi South 3.5 mph - N/A   Clear
4:35 AM 53.6 °F 53.6 °F 100% 29.83 in 10.0 mi South 3.5 mph - N/A   Clear
4:55 AM 53.6 °F 53.6 °F 100% 29.80 in 10.0 mi SE 3.5 mph - N/A   Clear
5:15 AM 53.6 °F 53.6 °F 100% 29.85 in 10.0 mi Calm Calm - N/A   Clear
5:35 AM 53.6 °F 53.6 °F 100% 29.83 in 10.0 mi Calm Calm - N/A   Clear
5:55 AM 53.6 °F 53.6 °F 100% 29.84 in 2.0 mi NW 3.5 mph - N/A   Clear
6:15 AM 53.6 °F 53.6 °F 100% 29.85 in 10.0 mi Calm Calm - N/A   Clear
6:35 AM 53.6 °F 53.6 °F 100% 29.87 in 7.0 mi NW 3.5 mph - N/A   Clear
6:55 AM 53.6 °F 53.6 °F 100% 29.87 in 7.0 mi Calm Calm - N/A   Mostly Cloudy
7:15 AM 53.6 °F 53.6 °F 100% 29.87 in 4.0 mi Calm Calm - N/A   Overcast
7:35 AM 53.6 °F 53.6 °F 100% 29.88 in 0.8 mi Calm Calm - N/A   Overcast
7:55 AM 53.6 °F 53.6 °F 100% 29.87 in 0.8 mi Calm Calm - N/A   Overcast
8:15 AM 53.6 °F 53.6 °F 100% 29.87 in 0.5 mi Calm Calm - N/A Fog Fog
8:35 AM 53.6 °F 53.6 °F 100% 29.87 in 1.0 mi Calm Calm - N/A   Overcast
8:55 AM 53.6 °F 53.6 °F 100% 29.88 in 0.8 mi Calm Calm - N/A   Overcast
9:15 AM 53.6 °F - N/A% 29.88 in 2.5 mi Calm Calm - N/A   Overcast
9:35 AM 53.6 °F - N/A% 29.86 in 2.0 mi Calm Calm - N/A   Overcast
9:55 AM 53.6 °F - N/A% 29.87 in 4.0 mi Calm Calm - N/A   Haze
10:15 AM 53.6 °F - N/A% 29.88 in 7.0 mi Calm Calm - N/A Rain Light Rain
10:35 AM 53.6 °F - N/A% 29.88 in 7.0 mi South 3.5 mph - N/A Rain Light Rain
10:55 AM 55.4 °F - N/A% 29.87 in 7.0 mi South 3.5 mph - N/A Rain Light Rain
11:15 AM 55.4 °F - N/A% 29.87 in 5.0 mi SSW 3.5 mph - N/A Rain Rain
11:35 AM 55.4 °F - N/A% 29.86 in 7.0 mi South 4.6 mph - N/A Rain Light Rain
11:55 AM 55.4 °F - N/A% 29.84 in 7.0 mi SSW 3.5 mph - N/A Rain Light Rain
12:15 PM 55.4 °F - N/A% 29.84 in 7.0 mi SW 5.8 mph - N/A Rain Rain
12:35 PM 55.4 °F - N/A% 29.83 in 5.0 mi WSW 4.6 mph - N/A Rain Rain
12:55 PM 55.4 °F - N/A% 29.82 in 10.0 mi South 4.6 mph - N/A Rain Rain
1:15 PM 55.4 °F - N/A% 29.81 in 7.0 mi South 5.8 mph - N/A Rain Light Rain
1:35 PM 57.2 °F - N/A% 29.77 in 10.0 mi South 5.8 mph - N/A Rain Light Rain
1:55 PM 57.2 °F - N/A% 29.76 in 10.0 mi SSE 5.8 mph - N/A   Overcast
2:15 PM 57.2 °F - N/A% 29.75 in 10.0 mi SSE 3.5 mph - N/A   Overcast
2:35 PM 57.2 °F - N/A% 29.75 in 10.0 mi South 4.6 mph - N/A   Mostly Cloudy
2:55 PM 59.0 °F - N/A% 29.74 in 10.0 mi South 6.9 mph - N/A   Scattered Clouds
3:15 PM 59.0 °F 59.0 °F 100% 29.74 in 10.0 mi South 8.1 mph - N/A   Clear
3:35 PM 59.0 °F 59.0 °F 100% 29.72 in 10.0 mi South 5.8 mph - N/A   Clear
3:55 PM 59.0 °F 59.0 °F 100% 29.70 in 10.0 mi SSE 6.9 mph - N/A   Clear
4:15 PM 59.0 °F 59.0 °F 100% 29.70 in 10.0 mi Calm Calm - N/A   Clear
4:35 PM 59.0 °F 59.0 °F 100% 29.74 in 10.0 mi SSW 4.6 mph - N/A   Scattered Clouds
4:55 PM 59.0 °F 59.0 °F 100% 29.72 in 10.0 mi Calm Calm - N/A   Scattered Clouds
7:35 PM 59.0 °F 59.0 °F 100% 29.74 in 10.0 mi WSW 6.9 mph - N/A   Overcast
7:55 PM 59.0 °F 59.0 °F 100% 29.75 in 10.0 mi SW 6.9 mph - N/A   Overcast
8:15 PM 59.0 °F 59.0 °F 100% 29.75 in 10.0 mi SW 5.8 mph - N/A   Overcast
8:35 PM 59.0 °F 59.0 °F 100% 29.75 in 10.0 mi SW 6.9 mph - N/A   Overcast
8:55 PM 59.0 °F 59.0 °F 100% 29.75 in 10.0 mi SW 5.8 mph - N/A   Overcast
9:15 PM 59.0 °F 59.0 °F 100% 29.74 in 10.0 mi SSW 5.8 mph - N/A   Mostly Cloudy
9:35 PM 59.0 °F 59.0 °F 100% 29.74 in 10.0 mi SW 5.8 mph - N/A   Mostly Cloudy
9:55 PM 59.0 °F 59.0 °F 100% 29.74 in 10.0 mi SW 4.6 mph - N/A   Mostly Cloudy
10:15 PM 59.0 °F 59.0 °F 100% 29.75 in 10.0 mi WSW 5.8 mph - N/A   Overcast
10:35 PM 59.0 °F 59.0 °F 100% 29.76 in 10.0 mi West 5.8 mph - N/A   Overcast
10:55 PM 59.0 °F 57.2 °F 94% 29.77 in 10.0 mi West 8.1 mph - N/A   Overcast
11:15 PM 59.0 °F 57.2 °F 94% 29.76 in 10.0 mi WSW 5.8 mph - N/A   Mostly Cloudy
11:35 PM 59.0 °F 57.2 °F 94% 29.77 in 10.0 mi WSW 5.8 mph - N/A   Scattered Clouds
11:55 PM 59.0 °F 59.0 °F 100% 29.76 in 10.0 mi WSW 4.6 mph - N/A   Mostly Cloudy